Weather History for CYYH - May, 2013

Change the Weather History Date:

Sunday, May 5, 2013

  Actual Average Record
Temperature  
Mean Temperature -6 °F -  
Max Temperature 6 °F 22 °F 28 °F (2001)
Min Temperature -19 °F 12 °F -19 °F (2013)
Degree Days  
Heating Degree Days 72    
Moisture  
Dew Point -12 °F    
Average Humidity 77    
Maximum Humidity 85    
Minimum Humidity 68    
Precipitation  
Precipitation 0.00 in - - ()
Sea Level Pressure  
Sea Level Pressure 30.12 in    
Wind  
Wind Speed 2 mph ()    
Max Wind Speed 7 mph    
Max Gust Speed -    
Visibility 9.4 miles    
Events Fog , Snow    
Averages and records for this station are not official NWS values.
T = Trace of Precipitation, MM = Missing Value Source: Averaged Metar Reports

Daily Weather History Graph

Daily Weather History Graph

Search for Another Location

Airport or City:

Trip Planner

Search our weather history database for the weather conditions in past years. The results will help you decide how hot, cold, wet, or windy it might be!

Date:

Astronomy

May. 05, 2013 Rise Set
Actual Time 3:26 AM CDT 10:59 PM CDT
Civil Twilight 1:43 AM CDT Sun does not set
Nautical Twilight Sun does not set Sun does not set
Astronomical Twilight Sun does not set Sun does not set
Moon 3:36 AM CDT (5/5) 4:35 PM CDT (5/5)
Length of Visible Light 24h 00m
Length of Day
19h 33m
Waning Crescent, 18% of the Moon is Illuminated
May 5
Waning Crescent
May 9
New
May 17
First Quarter
May 24
Full
May 31
Last Quarter

Hourly Weather History & Observations

Time (CDT) Temp. Windchill Dew Point Humidity Pressure Visibility Wind Dir Wind Speed Gust Speed Precip Events Conditions
12:00 AM -9.4 °F -20.9 °F -14.8 °F 77% 30.20 in 0.2 mi SSE 4.6 mph - N/A Fog Light Freezing Fog
1:00 AM -12 °F - -17 °F 68% 30.20 in 0 mi Calm Calm - - Fog Partial Fog
1:00 AM -11.2 °F - -16.6 °F 77% 30.20 in 0.2 mi Calm Calm - N/A Fog Light Freezing Fog
1:38 AM - - - N/A% - 0.5 mi Calm Calm - N/A Fog Light Freezing Fog
2:00 AM -13.0 °F - -18.4 °F 77% 30.19 in 0.5 mi Calm Calm - N/A Fog Light Freezing Fog
2:37 AM - - - N/A% - 0.2 mi Calm Calm - N/A Fog Light Freezing Fog
3:00 AM -14.8 °F - -20.2 °F 77% 30.18 in 0.2 mi Calm Calm - N/A Fog Light Freezing Fog
3:49 AM - - - N/A% - 0.5 mi NNE 2.3 mph - N/A Fog Light Freezing Fog
4:26 AM - - - N/A% - 3.0 mi NNE 2.3 mph - N/A   Partly Cloudy
5:00 AM -18.4 °F - -23.8 °F 76% 30.16 in 0.5 mi Calm Calm - N/A Fog Light Freezing Fog
5:23 AM - - - N/A% - 3.0 mi North 2.3 mph - N/A   Partly Cloudy
6:00 AM -18.4 °F -31.4 °F -23.8 °F 76% 30.15 in 6.0 mi North 4.6 mph - N/A   Clear
7:00 AM -16 °F - -21 °F 68% 30.14 in 6 mi North 6.9 mph - -   Mist
7:00 AM -14.8 °F -30.8 °F -20.2 °F 77% 30.14 in 6.0 mi North 6.9 mph - N/A   Clear
8:00 AM -14.8 °F -30.8 °F -18.4 °F 84% 30.13 in 8.0 mi North 6.9 mph - N/A   Clear
9:00 AM -11.2 °F -23.0 °F -16.6 °F 77% 30.13 in 15.0 mi North 4.6 mph - N/A   Clear
10:00 AM -11.2 °F - -16.6 °F 77% 30.12 in 15.0 mi North 2.3 mph - N/A   Clear
11:00 AM -7.6 °F - -11.2 °F 84% 30.12 in 15.0 mi North 2.3 mph - N/A   Clear
12:00 PM -5.8 °F - -9.4 °F 84% 30.11 in 15.0 mi Calm Calm - N/A   Clear
12:25 PM - - - N/A% - 15.0 mi Calm Calm - N/A   Clear
1:00 PM -2 °F - -7 °F 70% 30.10 in 15 mi Calm Calm - - Snow Snow
1:00 PM -2.2 °F - -7.6 °F 78% 30.10 in 15.0 mi Calm Calm - N/A   Clear
1:40 PM - - - N/A% - 15.0 mi South 2.3 mph - N/A   Clear
2:00 PM -0.4 °F - -5.8 °F 78% 30.10 in 15.0 mi Calm Calm - N/A   Clear
3:00 PM -0.4 °F -8.3 °F -5.8 °F 78% 30.09 in 15.0 mi South 3.5 mph - N/A   Clear
4:00 PM -0.4 °F -8.3 °F -5.8 °F 78% 30.09 in 15.0 mi SSW 3.5 mph - N/A   Clear
5:00 PM 1.4 °F -6.2 °F -2.2 °F 85% 30.09 in 15.0 mi SSE 3.5 mph - N/A   Clear
6:00 PM 3.2 °F - -2.2 °F 78% 30.09 in 15.0 mi West 2.3 mph - N/A   Clear
7:00 PM 2 °F - -3 °F 69% 30.09 in 15 mi WNW 3.5 mph - -   Partly Cloudy
7:00 PM 1.4 °F -6.2 °F -2.2 °F 85% 30.09 in 15.0 mi WNW 3.5 mph - N/A   Partly Cloudy
8:00 PM -0.4 °F -8.3 °F -5.8 °F 78% 30.08 in 15.0 mi NNW 3.5 mph - N/A   Mostly Cloudy
9:00 PM -0.4 °F - -7.6 °F 72% 30.08 in 15.0 mi West 2.3 mph - N/A   Mostly Cloudy
10:00 PM -4.0 °F -16.3 °F -9.4 °F 78% 30.08 in 15.0 mi West 5.8 mph - N/A   Scattered Clouds
11:00 PM -7.6 °F - -13.0 °F 77% 30.08 in 15.0 mi SW 2.3 mph - N/A   Mostly Cloudy